Franklin, PA

2:54 AM EDT on October 15, 2019 (GMT -0400)
Venango Regional

Weather History for KFKL - August, 2019

Change the Weather History Date:

Friday, August 16, 2019

  Actual Average Record
Temperature  
Mean Temperature 70 °F -  
Max Temperature 79 °F 80 °F 95 °F (1932)
Min Temperature 62 °F 57 °F 43 °F (1927)
Cooling Degree Days 5    
Growing Degree Days 20 (Base 50)    
Moisture  
Dew Point 64 °F    
Average Humidity 89    
Maximum Humidity 100    
Minimum Humidity 58    
Precipitation  
Precipitation 0.01 in - - ()
Sea Level Pressure  
Sea Level Pressure 30.00 in    
Wind  
Wind Speed 3 mph (SW)    
Max Wind Speed 12 mph    
Max Gust Speed 17 mph    
Visibility 5 miles    
Events Fog    
Averages and records for this station are not official NWS values.
T = Trace of Precipitation, MM = Missing Value Source: NWS Daily Summary

Daily Weather History Graph

Daily Weather History Graph

Search for Another Location

Airport or City:

Astronomy

Aug. 16, 2019 Rise Set
Actual Time 6:29 AM EDT 8:17 PM EDT
Civil Twilight 5:59 AM EDT 8:47 PM EDT
Nautical Twilight 5:23 AM EDT 9:23 PM EDT
Astronomical Twilight 4:44 AM EDT 10:01 PM EDT
Moon 9:15 PM EDT (8/16) 7:19 AM EDT (8/16)
Length of Visible Light 14h 47m
Length of Day
13h 48m
Full, 99% of the Moon is Illuminated
Aug 16
Full
Aug 23
Last Quarter
Aug 30
New
Sep 5
First Quarter
Sep 14
Full

Hourly Weather History & Observations

Time (EDT) Temp. Dew Point Humidity Pressure Visibility Wind Dir Wind Speed Gust Speed Precip Events Conditions
12:56 AM 64.9 °F 64.0 °F 97% 29.96 in 10.0 mi SSE 4.6 mph - N/A   Scattered Clouds
1:44 AM 62.6 °F 62.6 °F 100% 29.98 in 2.5 mi ESE 4.6 mph - N/A   Clear
1:53 AM 62.6 °F 62.6 °F 100% 29.98 in 1.5 mi ESE 3.5 mph - N/A   Partly Cloudy
1:56 AM 63.0 °F 62.1 °F 97% 29.96 in 1.0 mi Calm Calm - N/A   Mist
1:58 AM 62.6 °F 62.6 °F 100% 29.98 in 0.8 mi ESE 3.5 mph - N/A   Mist
2:07 AM 62.6 °F 62.6 °F 100% 29.98 in 0.5 mi Calm Calm - N/A Fog Fog
2:17 AM 62.6 °F 62.6 °F 100% 29.99 in 0.2 mi Calm Calm - N/A Fog Fog
2:53 AM 62.6 °F 62.6 °F 100% 29.99 in 0.5 mi Calm Calm - N/A Fog Fog
2:56 AM 62.1 °F 62.1 °F 100% 29.97 in 0.5 mi Calm Calm - N/A Fog Fog
3:12 AM 62.6 °F 62.6 °F 100% 29.98 in 0.8 mi Calm Calm - N/A   Overcast
3:20 AM 62.6 °F 62.6 °F 100% 29.98 in 0.5 mi Calm Calm - N/A Fog Fog
3:39 AM 62.6 °F 62.6 °F 100% 29.98 in 0.2 mi Calm Calm - N/A Fog Fog
3:56 AM 64.0 °F 64.0 °F 100% 29.96 in 0.2 mi South 3.5 mph - N/A Fog Fog
4:56 AM 63.0 °F 63.0 °F 100% 29.96 in 0.2 mi Calm Calm - 0.01 in Fog Fog
5:56 AM 63.0 °F 63.0 °F 100% 29.97 in 0.2 mi Calm Calm - N/A Fog Fog
6:56 AM 63.0 °F 63.0 °F 100% 29.98 in 0.2 mi Calm Calm - N/A Fog Fog
7:56 AM 64.0 °F 64.0 °F 100% 30.00 in 0.2 mi ESE 3.5 mph - N/A Fog Fog
8:56 AM 66.0 °F 66.0 °F 100% 30.00 in 0.2 mi South 3.5 mph - N/A Fog Fog
9:17 AM 66.2 °F 66.2 °F 100% 30.02 in 0.5 mi WSW 3.5 mph - N/A Fog Fog
9:25 AM 66.2 °F 66.2 °F 100% 30.02 in 0.8 mi SW 3.5 mph - N/A   Overcast
9:35 AM 66.2 °F 66.2 °F 100% 30.02 in 0.5 mi SW 4.6 mph - N/A Fog Fog
9:45 AM 66.2 °F 66.2 °F 100% 30.02 in 0.8 mi SW 4.6 mph - N/A   Overcast
9:52 AM 66.2 °F 66.2 °F 100% 30.02 in 1.2 mi Variable 4.6 mph - N/A   Overcast
9:56 AM 66.9 °F 66.9 °F 100% 30.01 in 2.0 mi SSW 4.6 mph - N/A   Overcast
10:15 AM 66.2 °F 66.2 °F 100% 30.02 in 5.0 mi South 5.8 mph - N/A   Overcast
10:39 AM 69.8 °F 66.2 °F 88% 30.02 in 10.0 mi WSW 4.6 mph - N/A   Mostly Cloudy
10:56 AM 70.0 °F 66.0 °F 87% 30.01 in 10.0 mi SW 5.8 mph - N/A   Scattered Clouds
11:44 AM 73.4 °F 66.2 °F 78% 30.03 in 10.0 mi SW 6.9 mph - N/A   Mostly Cloudy
11:56 AM 75.9 °F 66.0 °F 71% 30.01 in 10.0 mi SW 8.1 mph - N/A   Overcast
12:20 PM 75.2 °F 66.2 °F 73% 30.04 in 10.0 mi WSW 9.2 mph - N/A   Scattered Clouds
12:56 PM 75.9 °F 64.9 °F 69% 30.01 in 10.0 mi West 8.1 mph - N/A   Scattered Clouds
1:56 PM 75.9 °F 64.0 °F 67% 30.02 in 10.0 mi WSW 10.4 mph - N/A   Scattered Clouds
2:56 PM 78.1 °F 64.0 °F 62% 30.00 in 10.0 mi WSW 11.5 mph 17.3 mph N/A   Partly Cloudy
3:56 PM 78.1 °F 62.1 °F 58% 29.99 in 10.0 mi WSW 10.4 mph 17.3 mph N/A   Scattered Clouds
4:56 PM 78.1 °F 62.1 °F 58% 29.99 in 10.0 mi WSW 11.5 mph - N/A   Partly Cloudy
5:56 PM 75.9 °F 64.0 °F 67% 29.98 in 10.0 mi West 5.8 mph - N/A   Clear
6:56 PM 75.9 °F 64.0 °F 67% 29.98 in 10.0 mi West 5.8 mph - N/A   Clear
7:56 PM 72.0 °F 63.0 °F 73% 29.99 in 10.0 mi West 4.6 mph - N/A   Clear
8:56 PM 69.1 °F 63.0 °F 81% 30.00 in 10.0 mi Calm Calm - N/A   Clear
9:56 PM 68.0 °F 61.0 °F 78% 30.01 in 10.0 mi Calm Calm - N/A   Clear
10:56 PM 64.9 °F 62.1 °F 90% 30.02 in 10.0 mi South 3.5 mph - N/A   Clear
11:56 PM 64.0 °F 62.1 °F 93% 30.01 in 10.0 mi South 3.5 mph - N/A   Clear